VUE630A LPPT-LEPA

Flight info

Callsign VUE630A
Flight time 1h 21m
Altitude 34000
Route ORVED DCT UREDI DCT NVS/N0432F350 DCT NANDO DCT FENXE DCT MABUX DCT RETBA DCT MOPIR DCT LASPO/N0430F340 DCT ORVUS M871 GODOX
Aircraft A320/M-SDE3FGHIRWY/LB1

Departure

Time 2026-05-07 18:35
Airport Lisbon Humberto Delgado Airport (LPPT)

Arrival

Time 2026-05-07 19:56
Airport Palma de Mallorca Airport (LEPA)
Time Latitude Longitude Altitude Speed Heading
2026-05-07 17:55 38.76444 -9.13826 357 ft 0 kts 168°
2026-05-07 18:21 38.76445 -9.13826 347 ft 1 kts 168°
2026-05-07 18:21 38.76459 -9.13830 357 ft 3 kts 168°
2026-05-07 18:22 38.76479 -9.13835 353 ft 3 kts 168°
2026-05-07 18:22 38.76492 -9.13838 351 ft 3 kts 173°
2026-05-07 18:22 38.76517 -9.13837 354 ft 3 kts 217°
2026-05-07 18:22 38.76525 -9.13826 351 ft 1 kts 258°
2026-05-07 18:23 38.76528 -9.13808 349 ft 2 kts 258°
2026-05-07 18:23 38.76528 -9.13806 348 ft 1 kts 258°
2026-05-07 18:24 38.76529 -9.13806 348 ft 0 kts 258°
2026-05-07 18:26 38.76528 -9.13807 348 ft 0 kts 258°
2026-05-07 18:26 38.76524 -9.13834 352 ft 8 kts 258°
2026-05-07 18:26 38.76535 -9.13927 355 ft 12 kts 331°
2026-05-07 18:26 38.76564 -9.14021 350 ft 14 kts 238°
2026-05-07 18:27 38.76498 -9.14116 351 ft 15 kts 248°
2026-05-07 18:27 38.76519 -9.14246 336 ft 14 kts 293°
2026-05-07 18:27 38.76536 -9.14301 336 ft 0 kts 292°
2026-05-07 18:33 38.76552 -9.14350 333 ft 13 kts 292°
2026-05-07 18:33 38.76576 -9.14417 332 ft 2 kts 311°
2026-05-07 18:34 38.76654 -9.14384 336 ft 34 kts 22°
2026-05-07 18:34 38.77104 -9.14145 355 ft 102 kts 22°
2026-05-07 18:34 38.77931 -9.13700 370 ft 153 kts 21°
2026-05-07 18:34 38.78941 -9.13141 888 ft 159 kts 16°
2026-05-07 18:35 38.79971 -9.12586 1599 ft 165 kts 17°
2026-05-07 18:35 38.81102 -9.11991 1865 ft 186 kts 18°
2026-05-07 18:35 38.82310 -9.11146 2123 ft 211 kts 28°
2026-05-07 18:35 38.83647 -9.10098 2492 ft 238 kts 28°
2026-05-07 18:36 38.85130 -9.08945 2982 ft 259 kts 28°
2026-05-07 18:36 38.86702 -9.07732 3759 ft 266 kts 28°
2026-05-07 18:36 38.88317 -9.06487 4567 ft 274 kts 29°
2026-05-07 18:36 38.89772 -9.04873 5322 ft 283 kts 56°
2026-05-07 18:37 38.90692 -9.02635 6211 ft 284 kts 67°
2026-05-07 18:37 38.91535 -9.00338 7103 ft 284 kts 68°
2026-05-07 18:37 38.92354 -8.98062 7985 ft 286 kts 68°
2026-05-07 18:37 38.93205 -8.95722 8745 ft 292 kts 67°
2026-05-07 18:38 38.94088 -8.93351 9551 ft 296 kts 67°
2026-05-07 18:38 38.94989 -8.90954 10260 ft 302 kts 67°
2026-05-07 18:38 38.95936 -8.88433 10496 ft 324 kts 67°
2026-05-07 18:38 38.96943 -8.85740 10770 ft 342 kts 67°
2026-05-07 18:39 38.97985 -8.82952 11362 ft 349 kts 67°
2026-05-07 18:39 38.99038 -8.80130 12032 ft 353 kts 67°
2026-05-07 18:39 39.00104 -8.77267 12700 ft 356 kts 67°
2026-05-07 18:39 39.01178 -8.74383 13354 ft 360 kts 67°
2026-05-07 18:40 39.02263 -8.71460 13973 ft 364 kts 67°
2026-05-07 18:40 39.03356 -8.68510 14539 ft 367 kts 67°
2026-05-07 18:40 39.04456 -8.65530 15099 ft 371 kts 67°
2026-05-07 18:40 39.05567 -8.62523 15653 ft 374 kts 67°
2026-05-07 18:41 39.06689 -8.59486 16214 ft 378 kts 67°
2026-05-07 18:41 39.07823 -8.56412 16777 ft 381 kts 67°
2026-05-07 18:41 39.08963 -8.53323 17337 ft 385 kts 67°
2026-05-07 18:41 39.10114 -8.50196 17893 ft 388 kts 67°
2026-05-07 18:42 39.11276 -8.47041 18425 ft 391 kts 66°
2026-05-07 18:42 39.12429 -8.43906 18880 ft 395 kts 66°
2026-05-07 18:42 39.13616 -8.40684 19341 ft 400 kts 66°
2026-05-07 18:42 39.14812 -8.37428 19798 ft 404 kts 66°
2026-05-07 18:43 39.16019 -8.34131 20248 ft 409 kts 66°
2026-05-07 18:43 39.17234 -8.30800 20674 ft 413 kts 66°
2026-05-07 18:43 39.18461 -8.27423 21087 ft 418 kts 66°
2026-05-07 18:43 39.19699 -8.24015 21490 ft 422 kts 66°
2026-05-07 18:44 39.20951 -8.20571 21893 ft 427 kts 66°
2026-05-07 18:44 39.22219 -8.17089 22294 ft 431 kts 66°
2026-05-07 18:44 39.23500 -8.13573 22696 ft 435 kts 66°
2026-05-07 18:44 39.24792 -8.10023 23089 ft 439 kts 66°
2026-05-07 18:45 39.26097 -8.06437 23475 ft 444 kts 66°
2026-05-07 18:45 39.27413 -8.02816 23813 ft 447 kts 65°
2026-05-07 18:45 39.28684 -7.99130 24167 ft 450 kts 68°
2026-05-07 18:45 39.29845 -7.95368 24542 ft 452 kts 70°
2026-05-07 18:46 39.30928 -7.91552 24898 ft 454 kts 71°
2026-05-07 18:46 39.31964 -7.87740 25268 ft 457 kts 71°
2026-05-07 18:46 39.33024 -7.83825 25644 ft 459 kts 71°
2026-05-07 18:46 39.34086 -7.79965 25997 ft 461 kts 71°
2026-05-07 18:47 39.35185 -7.76063 26351 ft 463 kts 70°
2026-05-07 18:47 39.36310 -7.72146 26697 ft 466 kts 70°
2026-05-07 18:47 39.37445 -7.68220 27042 ft 468 kts 70°
2026-05-07 18:47 39.38666 -7.64310 27390 ft 470 kts 64°
2026-05-07 18:48 39.40138 -7.60516 27722 ft 473 kts 63°
2026-05-07 18:48 39.41618 -7.56711 28078 ft 475 kts 63°
2026-05-07 18:48 39.43100 -7.52883 28425 ft 478 kts 63°
2026-05-07 18:48 39.44585 -7.49027 28771 ft 480 kts 63°
2026-05-07 18:49 39.45566 -7.46471 28985 ft 482 kts 63°
2026-05-07 18:49 39.47060 -7.42573 29310 ft 484 kts 63°
2026-05-07 18:49 39.48565 -7.38644 29668 ft 486 kts 62°
2026-05-07 18:49 39.50061 -7.34728 30107 ft 485 kts 62°
2026-05-07 18:50 39.51559 -7.30808 30479 ft 486 kts 62°
2026-05-07 18:50 39.53060 -7.26879 30835 ft 486 kts 62°
2026-05-07 18:50 39.54555 -7.22949 31185 ft 487 kts 62°
2026-05-07 18:50 39.56051 -7.19005 31536 ft 488 kts 62°
2026-05-07 18:51 39.57547 -7.15074 31889 ft 489 kts 62°
2026-05-07 18:51 39.59054 -7.11114 32251 ft 490 kts 62°
2026-05-07 18:51 39.60566 -7.07136 32609 ft 490 kts 62°
2026-05-07 18:51 39.62076 -7.03166 32969 ft 491 kts 62°
2026-05-07 18:52 39.63582 -6.99197 33340 ft 492 kts 62°
2026-05-07 18:52 39.65091 -6.95208 33702 ft 492 kts 62°
2026-05-07 18:52 39.66601 -6.91205 33835 ft 495 kts 62°
2026-05-07 18:53 39.69627 -6.83142 33853 ft 497 kts 62°
2026-05-07 18:53 39.72633 -6.75126 33846 ft 498 kts 61°
2026-05-07 18:54 39.75667 -6.67029 33849 ft 498 kts 61°
2026-05-07 18:54 39.78697 -6.58934 33851 ft 497 kts 61°
2026-05-07 18:55 39.81708 -6.50839 33855 ft 497 kts 61°
2026-05-07 18:55 39.84726 -6.42722 33967 ft 501 kts 61°
2026-05-07 18:55 39.86159 -6.38584 34260 ft 504 kts 68°
2026-05-07 18:56 39.87254 -6.34246 34566 ft 505 kts 70°
2026-05-07 18:56 39.88328 -6.29889 34893 ft 505 kts 70°
2026-05-07 18:56 39.89399 -6.25536 35198 ft 505 kts 70°
2026-05-07 18:56 39.90471 -6.21184 35524 ft 504 kts 70°
2026-05-07 18:57 39.91543 -6.16832 35789 ft 505 kts 70°
2026-05-07 18:57 39.93686 -6.08110 35866 ft 505 kts 70°
2026-05-07 18:58 39.95813 -5.99400 35869 ft 504 kts 70°
2026-05-07 18:58 39.97939 -5.90687 35874 ft 504 kts 70°
2026-05-07 18:59 39.99146 -5.81729 35883 ft 506 kts 89°
2026-05-07 18:59 39.99275 -5.72526 35880 ft 514 kts 89°
2026-05-07 19:00 39.99383 -5.63209 35875 ft 516 kts 89°
2026-05-07 19:00 39.99487 -5.53821 35881 ft 517 kts 89°
2026-05-07 19:01 39.99576 -5.44455 35882 ft 517 kts 89°
2026-05-07 19:01 39.99665 -5.35051 35890 ft 518 kts 89°
2026-05-07 19:02 39.99759 -5.25660 35899 ft 518 kts 89°
2026-05-07 19:02 39.99845 -5.16262 35903 ft 518 kts 89°
2026-05-07 19:03 39.99921 -5.06872 35901 ft 518 kts 89°
2026-05-07 19:03 39.99979 -4.97457 35907 ft 519 kts 89°
2026-05-07 19:04 40.00027 -4.88047 35916 ft 518 kts 89°
2026-05-07 19:04 40.00072 -4.78658 35914 ft 518 kts 89°
2026-05-07 19:05 40.00114 -4.69321 35915 ft 518 kts 89°
2026-05-07 19:05 40.00149 -4.59917 35915 ft 518 kts 89°
2026-05-07 19:06 40.00171 -4.50520 35921 ft 518 kts 89°
2026-05-07 19:06 40.00194 -4.36414 35922 ft 519 kts 89°
2026-05-07 19:07 40.00206 -4.27024 35926 ft 519 kts 89°
2026-05-07 19:07 40.00212 -4.17590 35925 ft 519 kts 89°
2026-05-07 19:08 40.00231 -4.08176 35932 ft 519 kts 89°
2026-05-07 19:08 40.00244 -3.98747 35934 ft 520 kts 89°
2026-05-07 19:09 40.00241 -3.89382 35933 ft 520 kts 89°
2026-05-07 19:09 40.00234 -3.79933 35931 ft 521 kts 89°
2026-05-07 19:10 40.00214 -3.70485 35932 ft 521 kts 89°
2026-05-07 19:10 40.00115 -3.61027 35932 ft 522 kts 96°
2026-05-07 19:11 39.98678 -3.51763 35935 ft 522 kts 103°
2026-05-07 19:11 39.97063 -3.42533 35933 ft 523 kts 103°
2026-05-07 19:12 39.95428 -3.33292 35940 ft 523 kts 103°
2026-05-07 19:12 39.93791 -3.24042 35945 ft 524 kts 103°
2026-05-07 19:13 39.92169 -3.14856 35949 ft 524 kts 103°
2026-05-07 19:13 39.90523 -3.05600 35957 ft 525 kts 103°
2026-05-07 19:14 39.88865 -2.96341 35957 ft 525 kts 103°
2026-05-07 19:14 39.87201 -2.87070 35964 ft 526 kts 103°
2026-05-07 19:15 39.85524 -2.77806 35970 ft 526 kts 104°
2026-05-07 19:15 39.83842 -2.68535 35971 ft 527 kts 103°
2026-05-07 19:16 39.82155 -2.59259 35977 ft 527 kts 103°
2026-05-07 19:16 39.80455 -2.49983 35982 ft 527 kts 104°
2026-05-07 19:17 39.78747 -2.40713 35985 ft 527 kts 104°
2026-05-07 19:17 39.77027 -2.31441 35995 ft 528 kts 104°
2026-05-07 19:18 39.75312 -2.22231 36002 ft 528 kts 104°
2026-05-07 19:18 39.73605 -2.12957 36005 ft 528 kts 103°
2026-05-07 19:19 39.71898 -2.03691 36017 ft 528 kts 104°
2026-05-07 19:19 39.70169 -1.94427 36018 ft 528 kts 104°
2026-05-07 19:20 39.68430 -1.85172 36024 ft 528 kts 104°
2026-05-07 19:20 39.66721 -1.75916 36029 ft 527 kts 102°
2026-05-07 19:21 39.65301 -1.66576 36032 ft 527 kts 99°
2026-05-07 19:21 39.64070 -1.57206 36029 ft 527 kts 99°
2026-05-07 19:22 39.62802 -1.47849 36018 ft 526 kts 100°
2026-05-07 19:22 39.61447 -1.38531 36003 ft 526 kts 101°
2026-05-07 19:23 39.60059 -1.29217 35990 ft 525 kts 101°
2026-05-07 19:23 39.58686 -1.19920 35983 ft 525 kts 101°
2026-05-07 19:24 39.57324 -1.10684 35987 ft 525 kts 101°
2026-05-07 19:24 39.56395 -1.04477 35987 ft 524 kts 101°
2026-05-07 19:25 39.55299 -0.97221 35996 ft 523 kts 101°
2026-05-07 19:25 39.53887 -0.87973 36008 ft 523 kts 101°
2026-05-07 19:26 39.52479 -0.78763 36019 ft 522 kts 101°
2026-05-07 19:26 39.51069 -0.69540 36025 ft 521 kts 101°
2026-05-07 19:27 39.49658 -0.60337 36029 ft 521 kts 101°
2026-05-07 19:27 39.48231 -0.51137 36024 ft 521 kts 101°
2026-05-07 19:28 39.46799 -0.41947 36025 ft 521 kts 102°
2026-05-07 19:28 39.45360 -0.32766 36019 ft 520 kts 102°
2026-05-07 19:29 39.43918 -0.23597 36015 ft 520 kts 102°
2026-05-07 19:29 39.42466 -0.14435 36006 ft 519 kts 102°
2026-05-07 19:30 39.41892 -0.09846 35585 ft 516 kts 92°
2026-05-07 19:30 39.41763 -0.05272 34960 ft 516 kts 90°
2026-05-07 19:30 39.41662 -0.00631 34311 ft 517 kts 90°
2026-05-07 19:30 39.41568 0.04028 33605 ft 519 kts 90°
2026-05-07 19:31 39.41471 0.08688 32886 ft 519 kts 90°
2026-05-07 19:31 39.41371 0.13351 32216 ft 517 kts 91°
2026-05-07 19:31 39.41265 0.17991 31543 ft 516 kts 91°
2026-05-07 19:31 39.41152 0.22619 30872 ft 514 kts 91°
2026-05-07 19:32 39.41036 0.27221 30369 ft 509 kts 92°
2026-05-07 19:32 39.40919 0.31766 29890 ft 502 kts 92°
2026-05-07 19:32 39.40804 0.36250 29357 ft 495 kts 92°
2026-05-07 19:32 39.40690 0.40666 28840 ft 488 kts 92°
2026-05-07 19:33 39.40579 0.45023 28322 ft 481 kts 93°
2026-05-07 19:33 39.40460 0.49305 27839 ft 473 kts 93°
2026-05-07 19:33 39.40332 0.53529 27357 ft 466 kts 94°
2026-05-07 19:33 39.40198 0.57681 26871 ft 459 kts 94°
2026-05-07 19:34 39.40064 0.61768 26400 ft 452 kts 94°
2026-05-07 19:34 39.39930 0.65795 25895 ft 446 kts 94°
2026-05-07 19:34 39.39796 0.69819 24964 ft 450 kts 95°
2026-05-07 19:34 39.39663 0.73842 24319 ft 447 kts 95°
2026-05-07 19:35 39.39534 0.77837 23766 ft 441 kts 95°
2026-05-07 19:35 39.39406 0.81773 23155 ft 436 kts 95°
2026-05-07 19:35 39.39273 0.85665 22477 ft 431 kts 95°
2026-05-07 19:35 39.39141 0.89471 21801 ft 427 kts 94°
2026-05-07 19:36 39.39005 0.93291 21139 ft 424 kts 94°
2026-05-07 19:36 39.38869 0.97077 20581 ft 420 kts 94°
2026-05-07 19:36 39.38736 1.00848 20221 ft 420 kts 94°
2026-05-07 19:36 39.38603 1.04617 19874 ft 420 kts 94°
2026-05-07 19:37 39.38471 1.08380 19531 ft 418 kts 94°
2026-05-07 19:37 39.38340 1.12129 19191 ft 416 kts 94°
2026-05-07 19:37 39.38210 1.15848 18851 ft 411 kts 94°
2026-05-07 19:37 39.38080 1.19497 18519 ft 402 kts 94°
2026-05-07 19:38 39.37951 1.23067 18180 ft 393 kts 94°
2026-05-07 19:38 39.37822 1.26566 17802 ft 385 kts 94°
2026-05-07 19:38 39.37691 1.29984 17432 ft 377 kts 94°
2026-05-07 19:38 39.37563 1.33338 17063 ft 370 kts 94°
2026-05-07 19:39 39.37438 1.36633 16700 ft 365 kts 94°
2026-05-07 19:39 39.37323 1.39892 16342 ft 362 kts 92°
2026-05-07 19:39 39.37527 1.43128 15984 ft 361 kts 82°
2026-05-07 19:39 39.37809 1.45243 15753 ft 360 kts 81°
2026-05-07 19:40 39.38374 1.49491 15288 ft 357 kts 82°
2026-05-07 19:40 39.38790 1.52638 14946 ft 354 kts 81°
2026-05-07 19:40 39.39203 1.55770 14610 ft 352 kts 81°
2026-05-07 19:40 39.39473 1.57834 14386 ft 351 kts 81°
2026-05-07 19:41 39.39875 1.60918 14051 ft 346 kts 81°
2026-05-07 19:41 39.40273 1.63953 13778 ft 338 kts 81°
2026-05-07 19:41 39.40664 1.66927 13490 ft 332 kts 81°
2026-05-07 19:41 39.41045 1.69839 13196 ft 326 kts 81°
2026-05-07 19:42 39.41418 1.72706 12916 ft 320 kts 81°
2026-05-07 19:42 39.41785 1.75525 12629 ft 316 kts 81°
2026-05-07 19:42 39.42147 1.78302 12350 ft 310 kts 81°
2026-05-07 19:42 39.42494 1.80980 12093 ft 294 kts 81°
2026-05-07 19:43 39.42822 1.83523 11844 ft 280 kts 81°
2026-05-07 19:43 39.43131 1.85948 11593 ft 267 kts 81°
2026-05-07 19:43 39.43428 1.88277 11341 ft 258 kts 81°
2026-05-07 19:43 39.43717 1.90529 11103 ft 257 kts 80°
2026-05-07 19:44 39.44006 1.92801 10860 ft 255 kts 80°
2026-05-07 19:44 39.44291 1.95060 10608 ft 254 kts 80°
2026-05-07 19:44 39.44577 1.97312 10317 ft 254 kts 80°
2026-05-07 19:44 39.44868 1.99570 10032 ft 254 kts 79°
2026-05-07 19:45 39.45157 2.01829 9720 ft 255 kts 79°
2026-05-07 19:45 39.45616 2.04034 9421 ft 254 kts 70°
2026-05-07 19:45 39.46192 2.06201 9108 ft 254 kts 70°
2026-05-07 19:45 39.46765 2.08365 8786 ft 254 kts 70°
2026-05-07 19:46 39.47338 2.10533 8479 ft 254 kts 70°
2026-05-07 19:46 39.47908 2.12697 8173 ft 254 kts 70°
2026-05-07 19:46 39.48438 2.14862 7984 ft 250 kts 78°
2026-05-07 19:46 39.48378 2.17070 7859 ft 244 kts 99°
2026-05-07 19:47 39.48007 2.19193 7516 ft 240 kts 102°
2026-05-07 19:47 39.47603 2.21285 7093 ft 239 kts 102°
2026-05-07 19:47 39.47197 2.23351 6708 ft 236 kts 102°
2026-05-07 19:47 39.46803 2.25347 6191 ft 239 kts 102°
2026-05-07 19:48 39.46462 2.27089 5715 ft 242 kts 102°
2026-05-07 19:48 39.46060 2.29157 5260 ft 242 kts 102°
2026-05-07 19:48 39.45653 2.31265 4833 ft 241 kts 102°
2026-05-07 19:48 39.45252 2.33353 4393 ft 238 kts 102°
2026-05-07 19:49 39.44858 2.35418 3966 ft 236 kts 102°
2026-05-07 19:49 39.44473 2.37439 3708 ft 225 kts 102°
2026-05-07 19:49 39.44110 2.39349 3503 ft 213 kts 102°
2026-05-07 19:49 39.43767 2.41156 3305 ft 200 kts 102°
2026-05-07 19:50 39.43443 2.42862 3111 ft 190 kts 102°
2026-05-07 19:50 39.43131 2.44490 3017 ft 185 kts 100°
2026-05-07 19:50 39.43100 2.46123 3008 ft 182 kts 77°
2026-05-07 19:50 39.43561 2.47625 3005 ft 181 kts 58°
2026-05-07 19:51 39.44229 2.49019 3010 ft 182 kts 59°
2026-05-07 19:51 39.44895 2.50412 3014 ft 182 kts 58°
2026-05-07 19:51 39.45559 2.51804 3009 ft 181 kts 58°
2026-05-07 19:51 39.46222 2.53195 3003 ft 182 kts 58°
2026-05-07 19:52 39.46885 2.54587 2902 ft 181 kts 60°
2026-05-07 19:52 39.47546 2.55975 2707 ft 180 kts 59°
2026-05-07 19:52 39.48206 2.57362 2465 ft 181 kts 58°
2026-05-07 19:52 39.48858 2.58733 2252 ft 176 kts 59°
2026-05-07 19:53 39.49482 2.60045 2008 ft 171 kts 58°
2026-05-07 19:53 39.50106 2.61358 1785 ft 168 kts 61°
2026-05-07 19:53 39.50702 2.62613 1555 ft 160 kts 58°
2026-05-07 19:53 39.51263 2.63799 1335 ft 150 kts 60°
2026-05-07 19:54 39.51780 2.64887 1147 ft 140 kts 59°
2026-05-07 19:54 39.52292 2.65963 964 ft 138 kts 60°
2026-05-07 19:54 39.52791 2.67014 777 ft 136 kts 57°
2026-05-07 19:54 39.53286 2.68058 596 ft 135 kts 58°
2026-05-07 19:55 39.53781 2.69100 415 ft 137 kts 58°
2026-05-07 19:55 39.54287 2.70166 219 ft 140 kts 58°
2026-05-07 19:55 39.54783 2.71214 48 ft 135 kts 58°
2026-05-07 19:55 39.55211 2.72117 38 ft 95 kts 58°
2026-05-07 19:56 39.55442 2.72604 38 ft 35 kts 58°
2026-05-07 19:56 39.55496 2.72825 38 ft 22 kts 86°
2026-05-07 19:56 39.55498 2.73009 38 ft 19 kts 90°
2026-05-07 19:56 39.55505 2.73167 38 ft 16 kts 76°
2026-05-07 19:57 39.55554 2.73288 37 ft 15 kts 59°
2026-05-07 19:57 39.55607 2.73403 38 ft 15 kts 58°
2026-05-07 19:57 39.55604 2.73514 37 ft 13 kts 141°
2026-05-07 19:57 39.55539 2.73564 38 ft 8 kts 148°
2026-05-07 19:58 39.55500 2.73558 37 ft 5 kts 231°
2026-05-07 19:58 39.55481 2.73521 38 ft 5 kts 237°
2026-05-07 19:58 39.55455 2.73468 38 ft 8 kts 234°
2026-05-07 19:58 39.55398 2.73462 38 ft 10 kts 150°
2026-05-07 19:59 39.55324 2.73520 38 ft 13 kts 149°
2026-05-07 19:59 39.55253 2.73576 38 ft 11 kts 148°
2026-05-07 19:59 39.55197 2.73620 38 ft 8 kts 149°
2026-05-07 19:59 39.55154 2.73632 38 ft 6 kts 204°
2026-05-07 20:00 39.55130 2.73592 38 ft 6 kts 238°
2026-05-07 20:00 39.55104 2.73537 38 ft 9 kts 239°
2026-05-07 20:00 39.55069 2.73460 38 ft 11 kts 239°
2026-05-07 20:00 39.55034 2.73388 38 ft 7 kts 222°
2026-05-07 20:01 39.55003 2.73385 38 ft 3 kts 170°
2026-05-07 20:01 39.54994 2.73388 38 ft 1 kts 166°
2026-05-07 20:01 39.54986 2.73391 37 ft 1 kts 165°
2026-05-07 20:02 39.54983 2.73392 37 ft 0 kts 165°
2026-05-07 20:02 39.54982 2.73392 37 ft 0 kts 165°